Lid_Strength_Index
13 14 14 14 10 9 7 6 6 7 5 6 7 4 3 2 1 -0 0 0 -0 -1 -1 -1 -1 -1 -1 -1 -1 -2 -2 -2
13 14 12 10 9 8 8 7 5 6 8 5 3 3 2 1 0 0 0 -0 -1 -1 -1 -1 -1 -2 -2 -2 -2 -2 -2 -2
14 13 10 8 7 7 8 7 7 6 8 7 3 1 1 1 0 1 0 -0 -0 -2 -2 -1 -1 -2 -2 -2 -2 -2 -2 -2
15 14 9 7 7 7 7 7 6 7 7 7 2 2 1 1 1 0 0 0 -0 -1 -2 -2 -2 -2 -2 -2 -2 -2 -2 -2
14 13 10 8 6 8 8 7 7 5 8 6 4 2 1 1 1 0 -0 0 0 -0 -1 -1 -1 -1 -1 -1 -1 -1 -1 -2
15 14 12 7 6 6 7 7 4 4 9 8 4 1 1 1 1 1 0 -0 0 0 0 0 -0 -2 -2 -2 -2 -2 -2 -3
14 13 10 7 8 5 4 6 5 5 5 4 2 1 2 2 2 1 1 1 0 0 1 0 0 -1 -2 -2 -2 -3 -3 -4
11 10 8 7 7 6 6 6 7 6 4 3 2 3 4 3 3 3 2 2 1 0 0 1 -0 0 0 -0 0 -0 1 1
9 9 6 6 6 6 7 9 7 7 5 4 3 4 4 4 4 6 4 5 3 1 0 1 1 1 1 1 1 1 1 1
9 9 6 6 6 7 7 7 4 4 4 4 4 4 4 6 7 7 7 3 3 6 7 5 2 3 3 1 1 1 1 1
9 9 9 6 7 7 7 5 4 4 4 4 6 5 5 6 7 5 5 2 2 1 1 1 2 2 2 2 2 1 1 1
9 9 9 8 7 6 6 4 4 4 4 6 7 7 7 7 6 5 4 2 1 1 1 1 1 1 1 2 2 1 1 2
9 9 10 7 9 8 5 4 5 5 4 7 6 6 6 6 5 3 3 1 1 1 1 2 1 2 2 1 1 2 2 1
9 8 7 8 11 8 5 5 6 5 5 6 6 5 4 4 3 3 2 2 1 0 1 2 2 2 1 1 1 2 2 1
10 8 7 8 10 7 8 5 6 6 6 6 6 5 4 3 2 2 2 2 2 2 2 2 2 2 1 2 2 1 2 2
13 10 10 10 9 9 8 6 6 6 6 6 6 4 3 2 2 2 2 2 2 2 2 1 2 2 2 2 2 3 4 3
10 9 10 9 10 9 8 7 6 6 6 6 6 4 3 3 2 2 2 3 2 2 2 2 2 3 3 4 4 5 5 3
10 9 11 11 11 9 9 7 6 6 6 6 6 5 3 3 2 2 2 2 2 2 3 4 4 4 4 5 5 6 5 4
11 10 10 11 12 11 9 8 7 6 5 5 6 5 4 3 3 3 3 2 3 4 5 5 5 6 6 6 7 7 6 4
9 12 15 11 15 12 11 9 9 6 7 6 5 5 4 4 4 3 3 3 4 4 5 5 6 7 8 8 8 7 6 6